RYR94JD EGNM-EIDW

Flight info

Callsign RYR94JD
Flight time 0h 34m
Altitude 28000
Route POL Y70 KOLID UL70 GUNTU Z196 LELDO M145 BAGSO BAGSO4L
Aircraft B738/M-SDE3FGIJ1LRWYZ/SB1

Departure

Time 2026-05-04 20:25
Airport Leeds Bradford Airport (EGNM)

Arrival

Time 2026-05-04 21:00
Airport Dublin Airport (EIDW)
Time Latitude Longitude Altitude Speed Heading
2026-05-04 18:48 53.86872 -1.65618 664 ft 0 kts
2026-05-04 19:49 53.86852 -1.65621 663 ft 4 kts 18°
2026-05-04 19:50 53.86830 -1.65644 662 ft 4 kts 52°
2026-05-04 19:50 53.86819 -1.65683 664 ft 4 kts 79°
2026-05-04 19:50 53.86817 -1.65717 664 ft 0 kts 91°
2026-05-04 19:53 53.86817 -1.65714 664 ft 1 kts 91°
2026-05-04 19:53 53.86816 -1.65637 664 ft 12 kts 91°
2026-05-04 19:54 53.86814 -1.65511 664 ft 9 kts 91°
2026-05-04 19:54 53.86791 -1.65418 664 ft 9 kts 154°
2026-05-04 19:54 53.86716 -1.65415 664 ft 13 kts 183°
2026-05-04 19:54 53.86624 -1.65426 666 ft 13 kts 184°
2026-05-04 19:55 53.86535 -1.65435 668 ft 13 kts 184°
2026-05-04 19:55 53.86451 -1.65444 671 ft 10 kts 184°
2026-05-04 19:55 53.86425 -1.65447 672 ft 0 kts 183°
2026-05-04 20:22 53.86424 -1.65447 672 ft 1 kts 183°
2026-05-04 20:22 53.86399 -1.65449 672 ft 6 kts 183°
2026-05-04 20:22 53.86335 -1.65457 671 ft 13 kts 184°
2026-05-04 20:23 53.86217 -1.65460 676 ft 19 kts 166°
2026-05-04 20:23 53.86114 -1.65328 676 ft 19 kts 138°
2026-05-04 20:23 53.86011 -1.65169 668 ft 21 kts 137°
2026-05-04 20:23 53.85919 -1.64997 661 ft 18 kts 109°
2026-05-04 20:24 53.85871 -1.64927 659 ft 8 kts 231°
2026-05-04 20:24 53.85877 -1.64961 659 ft 2 kts 314°
2026-05-04 20:24 53.85905 -1.65005 660 ft 10 kts 317°
2026-05-04 20:24 53.86130 -1.65352 677 ft 82 kts 318°
2026-05-04 20:25 53.86740 -1.66304 673 ft 152 kts 314°
2026-05-04 20:25 53.87577 -1.67625 1212 ft 174 kts 316°
2026-05-04 20:25 53.88479 -1.69110 2067 ft 187 kts 313°
2026-05-04 20:25 53.89386 -1.70851 2618 ft 203 kts 310°
2026-05-04 20:26 53.90077 -1.72957 3183 ft 212 kts 282°
2026-05-04 20:26 53.89977 -1.75449 3854 ft 215 kts 255°
2026-05-04 20:26 53.89577 -1.77901 4655 ft 216 kts 253°
2026-05-04 20:26 53.89027 -1.80292 5381 ft 224 kts 245°
2026-05-04 20:27 53.88129 -1.82671 5822 ft 257 kts 233°
2026-05-04 20:27 53.86958 -1.85050 6832 ft 266 kts 230°
2026-05-04 20:27 53.85743 -1.87420 8018 ft 266 kts 230°
2026-05-04 20:27 53.84568 -1.89894 9071 ft 273 kts 239°
2026-05-04 20:28 53.83593 -1.92701 10134 ft 278 kts 242°
2026-05-04 20:28 53.82612 -1.95618 10850 ft 297 kts 242°
2026-05-04 20:28 53.81539 -1.98823 11239 ft 324 kts 242°
2026-05-04 20:28 53.80414 -2.02170 12140 ft 331 kts 241°
2026-05-04 20:29 53.79264 -2.05574 13180 ft 335 kts 241°
2026-05-04 20:29 53.78098 -2.09012 14099 ft 340 kts 240°
2026-05-04 20:29 53.76910 -2.12508 14930 ft 345 kts 240°
2026-05-04 20:29 53.75704 -2.16047 15728 ft 351 kts 240°
2026-05-04 20:30 53.74476 -2.19646 16534 ft 355 kts 240°
2026-05-04 20:30 53.73233 -2.23282 17323 ft 360 kts 240°
2026-05-04 20:30 53.71988 -2.26921 18094 ft 364 kts 240°
2026-05-04 20:30 53.70711 -2.30646 18770 ft 369 kts 240°
2026-05-04 20:31 53.69419 -2.34410 19414 ft 373 kts 240°
2026-05-04 20:31 53.68114 -2.38205 20035 ft 377 kts 240°
2026-05-04 20:31 53.66787 -2.42062 20605 ft 381 kts 240°
2026-05-04 20:31 53.65447 -2.45951 21147 ft 386 kts 240°
2026-05-04 20:32 53.64085 -2.49892 21688 ft 391 kts 239°
2026-05-04 20:32 53.62720 -2.53886 22228 ft 395 kts 242°
2026-05-04 20:32 53.61577 -2.58113 22795 ft 399 kts 248°
2026-05-04 20:32 53.60567 -2.62454 23553 ft 397 kts 249°
2026-05-04 20:33 53.59551 -2.66770 24154 ft 397 kts 248°
2026-05-04 20:33 53.58524 -2.71093 24681 ft 398 kts 251°
2026-05-04 20:33 53.57826 -2.75605 25230 ft 399 kts 261°
2026-05-04 20:33 53.57576 -2.80222 25866 ft 396 kts 271°
2026-05-04 20:34 53.57747 -2.84826 26484 ft 394 kts 276°
2026-05-04 20:34 53.58015 -2.89414 27057 ft 393 kts 277°
2026-05-04 20:34 53.58278 -2.93994 27631 ft 393 kts 276°
2026-05-04 20:34 53.58513 -2.98577 28093 ft 395 kts 276°
2026-05-04 20:35 53.58963 -3.07849 28067 ft 395 kts 276°
2026-05-04 20:35 53.59449 -3.16988 28068 ft 391 kts 279°
2026-05-04 20:36 53.60500 -3.25945 28060 ft 384 kts 284°
2026-05-04 20:36 53.61677 -3.34594 28064 ft 375 kts 284°
2026-05-04 20:37 53.62872 -3.43131 28080 ft 374 kts 285°
2026-05-04 20:37 53.64031 -3.51509 28057 ft 356 kts 285°
2026-05-04 20:38 53.64577 -3.55493 28052 ft 343 kts 285°
2026-05-04 20:38 53.65102 -3.59335 28058 ft 330 kts 284°
2026-05-04 20:38 53.65605 -3.63027 28056 ft 317 kts 284°
2026-05-04 20:38 53.66087 -3.66578 28038 ft 306 kts 285°
2026-05-04 20:39 53.66561 -3.70067 27675 ft 307 kts 285°
2026-05-04 20:39 53.67050 -3.73664 26720 ft 325 kts 284°
2026-05-04 20:39 53.67577 -3.77552 25447 ft 355 kts 284°
2026-05-04 20:39 53.68136 -3.81693 24731 ft 366 kts 284°
2026-05-04 20:40 53.68688 -3.85820 24333 ft 365 kts 284°
2026-05-04 20:40 53.69251 -3.90040 23973 ft 363 kts 284°
2026-05-04 20:40 53.69803 -3.94179 23605 ft 362 kts 283°
2026-05-04 20:40 53.70349 -3.98281 23198 ft 365 kts 283°
2026-05-04 20:41 53.70911 -4.02519 22819 ft 374 kts 283°
2026-05-04 20:41 53.71479 -4.06817 22433 ft 377 kts 283°
2026-05-04 20:41 53.71884 -4.11176 22139 ft 374 kts 275°
2026-05-04 20:41 53.72056 -4.15536 21817 ft 372 kts 274°
2026-05-04 20:42 53.72183 -4.19893 21467 ft 371 kts 273°
2026-05-04 20:42 53.72268 -4.22832 21211 ft 371 kts 273°
2026-05-04 20:42 53.72402 -4.27181 20843 ft 370 kts 273°
2026-05-04 20:42 53.72595 -4.32918 20354 ft 369 kts 274°
2026-05-04 20:43 53.72698 -4.35829 20105 ft 367 kts 273°
2026-05-04 20:43 53.72723 -4.40145 19543 ft 370 kts 268°
2026-05-04 20:43 53.72578 -4.44461 19134 ft 366 kts 266°
2026-05-04 20:43 53.72382 -4.48725 18757 ft 363 kts 265°
2026-05-04 20:44 53.72179 -4.52954 18397 ft 359 kts 264°
2026-05-04 20:44 53.71682 -4.57008 17983 ft 354 kts 251°
2026-05-04 20:44 53.70832 -4.60937 17409 ft 355 kts 249°
2026-05-04 20:44 53.69951 -4.64830 16906 ft 354 kts 249°
2026-05-04 20:45 53.69073 -4.68684 16537 ft 349 kts 249°
2026-05-04 20:45 53.68210 -4.72488 16103 ft 347 kts 249°
2026-05-04 20:45 53.67353 -4.76283 15673 ft 344 kts 249°
2026-05-04 20:45 53.66508 -4.80046 15273 ft 342 kts 249°
2026-05-04 20:46 53.65682 -4.83730 15153 ft 330 kts 250°
2026-05-04 20:46 53.64883 -4.87297 14958 ft 322 kts 250°
2026-05-04 20:46 53.64097 -4.90808 14636 ft 319 kts 250°
2026-05-04 20:46 53.63314 -4.94300 14255 ft 318 kts 250°
2026-05-04 20:47 53.62535 -4.97771 13892 ft 316 kts 250°
2026-05-04 20:47 53.61758 -5.01228 13484 ft 315 kts 250°
2026-05-04 20:47 53.60986 -5.04656 13262 ft 308 kts 250°
2026-05-04 20:47 53.60238 -5.07971 13170 ft 297 kts 250°
2026-05-04 20:48 53.59517 -5.11164 13043 ft 288 kts 250°
2026-05-04 20:48 53.58809 -5.14297 12732 ft 286 kts 250°
2026-05-04 20:48 53.58105 -5.17407 12231 ft 283 kts 250°
2026-05-04 20:48 53.57405 -5.20495 11773 ft 280 kts 250°
2026-05-04 20:49 53.56725 -5.23487 11389 ft 275 kts 250°
2026-05-04 20:49 53.56034 -5.26526 10908 ft 274 kts 250°
2026-05-04 20:49 53.55355 -5.29506 10469 ft 272 kts 250°
2026-05-04 20:49 53.54687 -5.32434 10015 ft 271 kts 250°
2026-05-04 20:50 53.54014 -5.35384 9524 ft 269 kts 250°
2026-05-04 20:50 53.53346 -5.38306 9062 ft 267 kts 250°
2026-05-04 20:50 53.52682 -5.41205 8618 ft 264 kts 250°
2026-05-04 20:50 53.52024 -5.44074 8162 ft 262 kts 250°
2026-05-04 20:51 53.51361 -5.46965 7579 ft 266 kts 250°
2026-05-04 20:51 53.50691 -5.49877 7261 ft 269 kts 250°
2026-05-04 20:51 53.50017 -5.52804 6978 ft 269 kts 250°
2026-05-04 20:51 53.49344 -5.55723 6685 ft 267 kts 251°
2026-05-04 20:52 53.48674 -5.58626 6407 ft 265 kts 251°
2026-05-04 20:52 53.48008 -5.61505 6114 ft 263 kts 251°
2026-05-04 20:52 53.47348 -5.64357 5837 ft 261 kts 251°
2026-05-04 20:52 53.46693 -5.67180 5562 ft 258 kts 251°
2026-05-04 20:53 53.46045 -5.69973 5298 ft 256 kts 250°
2026-05-04 20:53 53.45396 -5.72765 4981 ft 257 kts 251°
2026-05-04 20:53 53.44751 -5.75541 4688 ft 255 kts 250°
2026-05-04 20:53 53.44114 -5.78270 4566 ft 247 kts 250°
2026-05-04 20:54 53.43498 -5.80911 4402 ft 241 kts 251°
2026-05-04 20:54 53.42895 -5.83498 4241 ft 235 kts 251°
2026-05-04 20:54 53.42309 -5.86006 4124 ft 228 kts 251°
2026-05-04 20:54 53.41738 -5.88442 4010 ft 221 kts 251°
2026-05-04 20:55 53.41183 -5.90803 3896 ft 214 kts 251°
2026-05-04 20:55 53.40640 -5.93115 3752 ft 212 kts 251°
2026-05-04 20:55 53.40339 -5.95474 3628 ft 203 kts 281°
2026-05-04 20:55 53.40611 -5.97732 3458 ft 199 kts 279°
2026-05-04 20:56 53.40714 -6.00015 3226 ft 195 kts 276°
2026-05-04 20:56 53.40812 -6.02267 2968 ft 192 kts 277°
2026-05-04 20:56 53.40923 -6.04493 2697 ft 190 kts 278°
2026-05-04 20:56 53.41037 -6.06664 2444 ft 185 kts 277°
2026-05-04 20:57 53.41148 -6.08756 2189 ft 174 kts 277°
2026-05-04 20:57 53.41254 -6.10719 1947 ft 164 kts 277°
2026-05-04 20:57 53.41354 -6.12587 1741 ft 159 kts 278°
2026-05-04 20:57 53.41448 -6.14352 1511 ft 150 kts 277°
2026-05-04 20:58 53.41540 -6.16056 1295 ft 146 kts 277°
2026-05-04 20:58 53.41625 -6.17752 1070 ft 146 kts 276°
2026-05-04 20:58 53.41722 -6.19454 889 ft 148 kts 275°
2026-05-04 20:58 53.41816 -6.21189 708 ft 150 kts 274°
2026-05-04 20:59 53.41907 -6.22919 512 ft 149 kts 274°
2026-05-04 20:59 53.42004 -6.24631 294 ft 147 kts 273°
2026-05-04 20:59 53.42092 -6.26273 213 ft 131 kts 274°
2026-05-04 20:59 53.42162 -6.27534 217 ft 75 kts 275°
2026-05-04 21:00 53.42254 -6.28007 210 ft 26 kts 301°
2026-05-04 21:00 53.42343 -6.28118 218 ft 14 kts 20°
2026-05-04 21:00 53.42358 -6.27976 210 ft 13 kts 96°
2026-05-04 21:00 53.42350 -6.27829 220 ft 12 kts 95°
2026-05-04 21:01 53.42342 -6.27683 210 ft 13 kts 96°
2026-05-04 21:01 53.42330 -6.27479 210 ft 21 kts 95°
2026-05-04 21:01 53.42317 -6.27232 210 ft 21 kts 95°
2026-05-04 21:01 53.42304 -6.26991 213 ft 20 kts 94°
2026-05-04 21:02 53.42291 -6.26739 210 ft 24 kts 97°
2026-05-04 21:02 53.42275 -6.26446 217 ft 24 kts 95°
2026-05-04 21:02 53.42261 -6.26209 213 ft 17 kts 95°
2026-05-04 21:02 53.42261 -6.26022 210 ft 16 kts 76°
2026-05-04 21:03 53.42318 -6.25872 210 ft 15 kts 48°
2026-05-04 21:03 53.42390 -6.25747 210 ft 15 kts 45°
2026-05-04 21:03 53.42461 -6.25630 220 ft 15 kts 45°
2026-05-04 21:03 53.42543 -6.25489 210 ft 19 kts 46°
2026-05-04 21:04 53.42635 -6.25331 210 ft 18 kts 45°
2026-05-04 21:04 53.42720 -6.25186 215 ft 16 kts 45°
2026-05-04 21:04 53.42805 -6.25143 210 ft 13 kts 339°
2026-05-04 21:04 53.42884 -6.25200 214 ft 12 kts 335°
2026-05-04 21:05 53.42956 -6.25219 217 ft 9 kts 37°
2026-05-04 21:05 53.42961 -6.25143 210 ft 6 kts 98°
2026-05-04 21:05 53.42957 -6.25087 214 ft 5 kts 95°
2026-05-04 21:05 53.42955 -6.25046 215 ft 2 kts 92°
2026-05-04 21:06 53.42959 -6.25018 217 ft 2 kts 60°
2026-05-04 21:06 53.42982 -6.25013 214 ft 4 kts
2026-05-04 21:06 53.43008 -6.25009 213 ft 2 kts
2026-05-04 21:06 53.43011 -6.25009 212 ft 0 kts